2023-003C (55135 NORAD) Tracking and Keplerian Element Data

This shows tracking and keplerian element data for the satellite.

Feedback or suggestion? Click here.




ElementValue
Catalog55135
Name2023-003C
Epoch Orbit1156
Epoch Day85.20492369
Epoch Year2023
RAAN172.7608
Inclination97.2647
Eccentricity0.0013458
Argument of Perigee34.7968
Mean Anonmoly21.5496
Mean Motion15.22713799
Decay Rate0.00014824
L11 55135U 23003C 23085.20492369 .00014824 00000+0 63640-3 0 9990
L22 55135 97.2647 172.7608 0013458 34.7968 21.5496 15.22713799 11561



Live tracking and technical data element details for 2023-003C (NORAD 55135). 2023-003C can be tracked NOW for your location showing map with azimuth and elevation plus other details from your city location.







IsCatalogInMostPopularTable: catalog: 55135, numindb: 10
Update: records affected: 1



GetName: 55135 2023-003C

Hit Count: updated at: Mon, 27 Mar 2023 06:31:28 GMT